TimeCDT,TemperatureF,Dew PointF,Humidity,Sea Level PressureIn,VisibilityMPH,Wind Direction,Wind SpeedMPH,Gust SpeedMPH,PrecipitationIn,Events,Conditions,WindDirDegrees,DateUTC
12:51 AM,75.9,66.9,74,29.54,9.0,South,21.9,32.2,N/A,,Clear,170,2013-04-18 05:51:00
1:51 AM,75.0,68.0,79,29.56,8.0,SSW,16.1,25.3,N/A,,Clear,200,2013-04-18 06:51:00
2:04 AM,75.2,68.0,78,29.66,9.0,West,18.4,25.3,0.01,,Scattered Clouds,280,2013-04-18 07:04:00
2:11 AM,75.2,66.2,73,29.67,9.0,WSW,19.6,-,0.01,,Mostly Cloudy,250,2013-04-18 07:11:00
2:18 AM,73.4,60.8,65,29.69,6.0,NNW,46.0,54.1,0.01,Thunderstorm,Haze,330,2013-04-18 07:18:00
2:25 AM,60.8,51.8,72,29.73,5.0,NW,33.4,54.1,0.01,Rain-Thunderstorm,Light Thunderstorms and Rain,320,2013-04-18 07:25:00
2:32 AM,57.2,53.6,88,29.67,2.5,NNW,32.2,46.0,0.05,Rain-Thunderstorm,Heavy Thunderstorms and Rain,330,2013-04-18 07:32:00
2:41 AM,59.0,53.6,82,29.73,1.8,NNW,21.9,36.8,0.23,Rain-Thunderstorm,Heavy Thunderstorms and Rain,330,2013-04-18 07:41:00
2:45 AM,60.8,53.6,77,29.74,3.0,NNW,21.9,29.9,0.27,Rain-Thunderstorm,Thunderstorms and Rain,340,2013-04-18 07:45:00
2:51 AM,60.1,53.1,78,29.67,9.0,North,21.9,31.1,0.27,Rain-Thunderstorm,Light Thunderstorms and Rain,350,2013-04-18 07:51:00
3:15 AM,60.8,53.6,77,29.75,10.0,NW,17.3,24.2,0.00,,Overcast,320,2013-04-18 08:15:00
3:51 AM,57.9,51.1,78,29.75,10.0,NW,9.2,-,0.00,,Overcast,320,2013-04-18 08:51:00
4:51 AM,54.0,46.0,75,29.76,10.0,NW,20.7,27.6,0.00,,Scattered Clouds,320,2013-04-18 09:51:00
5:51 AM,51.1,42.1,71,29.84,10.0,North,12.7,-,0.00,,Scattered Clouds,350,2013-04-18 10:51:00
6:51 AM,48.9,39.0,69,29.88,10.0,North,20.7,24.2,N/A,,Mostly Cloudy,350,2013-04-18 11:51:00
7:51 AM,46.9,36.0,66,29.94,10.0,North,19.6,24.2,N/A,,Mostly Cloudy,350,2013-04-18 12:51:00
8:51 AM,46.9,35.1,63,29.97,10.0,North,15.0,25.3,N/A,,Mostly Cloudy,350,2013-04-18 13:51:00
9:51 AM,48.9,36.0,61,29.99,10.0,North,17.3,-,N/A,,Clear,360,2013-04-18 14:51:00
11:51 AM,54.0,35.1,49,30.00,10.0,NNW,17.3,25.3,N/A,,Clear,340,2013-04-18 16:51:00
12:51 PM,57.9,34.0,41,29.97,10.0,North,16.1,-,N/A,,Clear,350,2013-04-18 17:51:00
1:51 PM,61.0,32.0,34,29.96,10.0,North,15.0,-,N/A,,Clear,350,2013-04-18 18:51:00
2:51 PM,64.0,30.0,28,29.97,10.0,NNW,15.0,25.3,N/A,,Clear,330,2013-04-18 19:51:00
3:51 PM,64.0,27.0,25,29.96,10.0,NNW,18.4,24.2,N/A,,Clear,340,2013-04-18 20:51:00
4:51 PM,64.9,26.1,23,29.96,10.0,North,17.3,25.3,N/A,,Clear,350,2013-04-18 21:51:00
5:51 PM,66.0,24.1,20,29.97,10.0,North,18.4,23.0,N/A,,Clear,360,2013-04-18 22:51:00
6:51 PM,64.0,21.0,19,30.01,10.0,NNW,18.4,24.2,N/A,,Clear,340,2013-04-18 23:51:00
7:51 PM,61.0,21.9,22,30.04,10.0,North,18.4,-,N/A,,Clear,360,2013-04-19 00:51:00
8:51 PM,57.9,25.0,28,30.07,10.0,NNE,13.8,-,N/A,,Clear,30,2013-04-19 01:51:00
9:51 PM,54.0,27.0,35,30.11,10.0,NE,12.7,-,N/A,,Clear,50,2013-04-19 02:51:00
10:51 PM,50.0,30.0,46,30.15,10.0,ENE,9.2,-,N/A,,Clear,60,2013-04-19 03:51:00
11:51 PM,48.0,30.0,50,30.17,10.0,NE,6.9,-,N/A,,Clear,40,2013-04-19 04:51:00